Location: Starhoo Observatory
(41.8578°N, 70.9669°W)
Time: 04:07:47
(UTC-04:00)

ISS - Visible Passes

Search period start: 20 October 2014 00:00
Search period end: 30 October 2014 00:00
Orbit: 413 x 416 km, 51.6° (Epoch: 19 October)

Date Brightness Start Highest point End Pass type
(mag) Time Alt. Az. Time Alt. Az. Time Alt. Az.
20 Oct -1.6 19:44:01 10° NW 19:46:09 26° N 19:46:09 26° N visible
21 Oct -1.7 18:55:08 10° NW 18:57:53 23° NNE 18:59:09 18° NE visible
21 Oct 0.0 20:31:32 10° WNW 20:32:01 14° WNW 20:32:01 14° WNW visible
22 Oct -2.5 19:42:31 10° NW 19:45:04 45° NNW 19:45:04 45° NNW visible
23 Oct -2.6 18:53:33 10° NW 18:56:44 40° NNE 18:58:11 25° E visible
23 Oct 0.0 20:30:27 10° WNW 20:31:04 14° W 20:31:04 14° W visible
24 Oct -2.5 19:41:07 10° WNW 19:44:16 48° SW 19:44:16 48° SW visible
25 Oct -3.3 18:51:56 10° NW 18:55:17 86° SW 18:57:37 18° SE visible
26 Oct -0.7 19:40:11 10° W 19:42:31 18° SW 19:44:02 14° SSW visible
27 Oct -1.5 18:50:31 10° WNW 18:53:30 31° SW 18:56:29 10° SSE visible
29 Oct 0.0 18:50:08 10° WSW 18:51:24 12° SW 18:52:40 10° SSW visible
